• Join FlightAware (Why Join?)
  • Login
  • US Flag 
12:30AM EST


 

Airport Tracker/Info


-or-


 

Live Flight TrackerFlight Track Log ✈ N27XP ✈ 08-Dec-2013 ✈ KSOP - KHEF

Flight Track Log - Related Links

Times and Time Zones

All times are in EST time to prevent confusion due to time zone crossing. See the N27XP flight status page for this flight to view local times or setup timezone preferences in your user account.

Time Position Orientation Groundspeed Altitude Reporting Facility
EST Latitude Longitude Course Direction KTS MPH feet Rate Location/Type
09:38AM 35.3222 -79.3086 38° Northeast 230 265 4,300  Level Washington Center
09:39AM 35.3825 -79.2503 38° Northeast 293 337 7,200 2,746 Climbing Washington Center
09:40AM 35.4533 -79.1847 37° Northeast 313 360 9,700 2,924 Climbing Washington Center
09:41AM 35.5306 -79.1117 38° Northeast 313 360 13,000 2,607 Climbing Washington Center
09:42AM 35.5969 -79.0508 37° Northeast 313 360 15,000 2,237 Climbing Washington Center
09:43AM 35.6700 -78.9822 37° Northeast 323 372 17,400 2,050 Climbing Washington Center
09:44AM 35.7428 -78.9111 38° Northeast 323 372 19,100 1,550 Climbing Washington Center
09:45AM 35.8222 -78.8350 38° Northeast 334 384 20,500 966 Climbing Washington Center
09:46AM 35.9222 -78.7544 33° Northeast 361 415 21,000 246 Climbing Washington Center
09:47AM 36.0261 -78.6997 23° Northeast 387 445 21,000  Level Washington Center
09:48AM 36.1256 -78.6419 25° Northeast 394 453 21,000 202 Level Washington Center
09:49AM 36.2228 -78.5967 21° North 383 441 21,400 800 Climbing Washington Center
09:50AM 36.3142 -78.5306 30° Northeast 369 425 22,600 793 Climbing Washington Center
09:51AM 36.4133 -78.4775 23° Northeast 375 432 23,000 700 Climbing Washington Center
09:52AM 36.5192 -78.4167 25° Northeast 389 448 24,000 1,008 Climbing Washington Center
09:53AM 36.6164 -78.3633 24° Northeast 389 448 25,000 496 Climbing Washington Center
09:54AM 36.7072 -78.3097 25° Northeast 389 448 25,000  Level Washington Center
09:55AM 36.8131 -78.2458 26° Northeast 400 460 25,000  Level Washington Center
09:56AM 36.9275 -78.1692 28° Northeast 423 487 25,000  Level Washington Center
09:57AM 37.0414 -78.1081 23° Northeast 437 503 25,000 -300 Level Washington Center
09:58AM 37.1575 -78.0467 23° Northeast 442 509 24,400 -1,169 Descending Washington Center
09:59AM 37.2714 -77.9772 26° Northeast 447 514 22,700 -1,210 Descending Washington Center
10:00AM 37.3833 -77.9128 25° Northeast 447 514 22,000 -344 Descending Washington Center
10:01AM 37.4972 -77.8456 25° Northeast 447 514 22,000 -250 Level Washington Center
10:02AM 37.6111 -77.7808 24° Northeast 447 514 21,500 -1,200 Descending Washington Center
10:03AM 37.7247 -77.7158 24° Northeast 447 514 19,600 -1,700 Descending Washington Center
10:04AM 37.8367 -77.6481 26° Northeast 447 514 18,100 -1,916 Descending Washington Center
10:05AM 37.9439 -77.5850 25° Northeast 442 509 15,800 -2,300 Descending Washington Center
10:06AM 38.0450 -77.5297 23° Northeast 417 480 13,500 -2,231 Descending Washington Center
10:07AM 38.1419 -77.4714 25° Northeast 391 450 11,300 -2,118 Descending Washington Center
10:08AM 38.2322 -77.4208 24° Northeast 366 421 9,300 -1,983 Descending Washington Center
10:09AM 38.3222 -77.4044 North 337 388 7,400 -1,785 Descending Washington Center
10:10AM 38.3994 -77.3906 North 305 351 5,700 -1,686 Descending Washington Center
10:11AM 38.4706 -77.3792 North 274 315 4,000 -1,339 Descending Washington Center
10:12AM 38.5333 -77.3647 10° North 246 283 3,000 -655 Descending Washington Center
10:13AM 38.5875 -77.3711 355° North 214 246 2,700 -400 Descending Washington Center
10:14AM 38.6264 -77.4119 321° Northwest 182 209 2,200 -585 Descending Washington Center
10:15AM 38.6614 -77.4528 318° Northwest 177 204 1,500 -739 Descending Washington Center
10:16AM 38.7000 -77.5000 316° Northwest 116 133 500 -779 Descending Potomac TRACON
10:18AM 38.7167 -77.5000 322° Northwest  Level FlightAware Approximate
10:25AM 38.7210 -77.5151 322° Northwest  Level Estimated